Simultaneous Nadir Overpasses (SNOs) Predictions

Prediction of SNOs between AQUA and GOES-15 Satellite Orbit:

Table of predicted SNOs for the next 14.0 days since TLE Epoch: 8/28/2021
Index Date Time (AQUA) AQUA Lat,Lon GOES-15 Lat,Lon Distance(km) Time Diff (sec)
1 08/29/2021 22:03:57 -0.22,-127.09 -0.44,-128.23 129.73 80
2 08/30/2021 10:25:13 1.28,-132.25 0.44,-128.29 449.83 80
3 08/31/2021 21:51:47 0.45,-124.14 -0.44,-128.22 464.72 80
4 09/01/2021 10:13:02 0.67,-129.29 0.44,-128.28 115.05 80
5 09/03/2021 10:00:52 0.00,-126.34 0.43,-128.27 219.24 80
6 09/03/2021 22:22:15 -1.15,-131.53 -0.43,-128.20 378.57 80
7 09/05/2021 22:10:04 -0.53,-128.57 -0.42,-128.18 44.81 80
8 09/07/2021 21:57:54 0.10,-125.62 -0.42,-128.16 288.89 80
9 09/08/2021 10:19:09 0.97,-130.78 0.41,-128.22 291.67 80
10 09/10/2021 10:06:58 0.35,-127.82 0.41,-128.19 41.43 80
